GFSCGP_sfc_thetae_075.txt.gz
Theta_e
299 296 295 298 300 302 302 301 300 303 306 302 302 303 305 309 310 311 312 315 318 320 324 326 327 326 325 326 325 327 324 324 323 323 321 321 320 322 325 324 323 324 325 326
294 294 301 303 303 302 301 299 300 303 304 301 301 301 305 307 307 310 311 313 316 319 322 324 326 326 324 325 323 325 324 325 324 322 323 323 322 323 324 324 322 322 324 324
293 296 303 301 301 300 301 299 300 299 303 303 300 299 302 306 308 309 311 313 315 317 321 323 325 326 325 324 324 325 324 322 324 325 325 324 324 323 322 322 323 322 323 323
295 301 299 300 299 301 297 303 301 300 298 294 302 292 300 304 305 308 310 312 313 316 320 323 325 325 326 324 326 324 323 324 323 325 322 320 318 317 319 321 321 320 322 324
292 296 298 296 298 301 298 302 301 300 298 298 298 294 298 304 302 305 309 311 313 316 319 323 324 325 326 326 324 326 322 324 323 324 324 320 319 319 322 321 319 319 320 322
296 301 301 299 300 300 302 300 300 300 298 291 296 296 296 300 303 307 308 310 312 315 319 323 326 326 326 327 325 325 323 323 324 323 326 324 325 322 320 319 318 317 318 319
291 294 299 301 297 299 300 297 290 289 289 289 299 295 298 303 306 308 308 310 312 315 318 321 323 324 325 325 324 323 323 323 323 323 324 325 325 325 320 322 318 318 316 318
285 284 293 299 297 294 297 297 292 285 287 291 299 292 298 306 307 310 310 311 313 314 318 319 323 325 325 326 325 323 322 323 324 323 323 324 324 324 325 323 322 323 320 320
287 289 298 299 300 298 294 293 299 293 296 292 295 299 303 306 306 308 309 311 312 314 316 319 322 324 326 326 326 324 323 323 324 325 325 324 326 325 324 325 326 324 324 324
294 287 295 297 300 300 297 300 291 294 285 285 291 294 296 301 303 306 308 310 312 314 315 317 321 324 325 326 327 327 324 323 324 325 326 325 326 326 327 327 326 326 326 326
295 293 292 296 293 294 295 293 295 297 294 288 287 293 304 303 305 305 308 310 312 313 315 317 321 323 326 327 327 326 325 323 323 326 325 325 327 327 329 328 328 328 328 327
298 296 290 291 297 300 298 295 296 291 290 294 293 293 305 306 307 307 308 309 312 313 315 316 319 322 324 325 326 326 325 324 324 327 327 327 327 326 327 328 329 330 328 328
295 293 288 289 294 298 296 298 298 298 297 292 289 293 306 306 306 306 306 308 310 312 314 315 317 320 323 324 325 325 326 325 327 325 325 327 327 327 326 327 328 328 329 328
298 295 292 286 290 295 293 295 298 296 291 292 292 295 300 303 303 304 306 308 309 310 312 313 315 317 322 324 324 325 327 329 328 325 324 324 327 327 327 327 327 327 327 327
297 290 294 295 294 293 295 295 296 295 296 292 295 296 300 303 304 306 307 308 308 309 310 312 314 316 318 322 324 325 326 327 328 326 325 325 327 327 326 327 326 326 326 326
296 289 291 290 294 293 290 294 295 295 295 296 296 296 304 305 306 304 304 306 307 308 309 310 313 315 316 317 322 324 325 327 328 327 326 326 326 326 326 327 327 326 325 325
292 291 289 285 291 291 287 291 293 294 297 296 293 299 302 302 302 304 305 307 308 309 311 311 312 314 315 317 318 320 324 326 327 326 326 326 327 326 327 326 325 325 324 325
291 291 291 287 289 280 291 297 296 295 297 299 298 300 301 302 304 306 308 309 309 309 311 312 313 315 316 316 316 318 319 323 325 325 325 326 326 326 326 326 325 325 325 324
295 292 288 285 285 289 291 293 293 292 293 299 298 300 302 303 304 305 310 310 309 310 312 313 314 316 318 317 316 315 316 319 322 324 324 324 325 324 325 325 325 326 325 324
293 294 289 287 281 279 290 297 301 299 290 300 300 300 300 301 297 301 308 310 310 311 312 313 315 317 318 318 319 318 315 315 318 323 324 325 325 325 324 325 325 325 324 322
287 288 285 285 284 288 296 298 301 288 291 299 301 301 302 300 302 305 307 309 310 311 311 313 314 311 309 309 312 316 318 316 317 319 323 324 324 324 323 324 326 324 315 303
287 285 284 286 283 281 298 298 293 299 303 302 303 303 302 304 305 306 307 308 310 309 310 309 308 304 300 298 302 310 315 315 319 319 320 321 322 319 322 321 315 306 300 292
287 291 289 289 290 298 302 301 303 304 302 302 302 303 303 303 304 306 307 309 307 306 306 305 302 297 295 294 294 295 298 302 307 313 308 305 303 303 305 302 297 294 294 291
294 296 292 291 297 297 301 301 304 303 302 303 303 302 302 301 302 304 305 306 303 302 300 300 297 291 289 290 290 291 294 296 296 295 294 293 292 290 291 291 292 292 291 288
293 295 293 292 295 297 298 301 302 301 303 302 302 301 299 299 299 300 301 299 299 297 295 293 291 287 286 288 287 289 290 292 290 289 289 287 286 285 284 284 286 286 286 287
295 293 291 289 298 298 298 300 300 299 298 299 298 297 297 297 295 297 297 294 293 291 290 288 286 286 284 285 284 285 287 288 288 286 285 284 284 283 283 282 281 283 283 284

GFSCGP_sfc_thetae_078.txt.gz
Theta_e
299 293 291 295 300 300 299 298 297 302 305 303 302 301 304 307 308 309 311 312 315 318 322 324 325 326 325 327 326 325 323 322 323 322 321 320 319 321 322 323 323 324 323 323
296 292 296 298 298 297 297 295 296 302 305 303 301 300 303 306 306 308 309 311 313 316 320 323 324 325 324 324 325 324 324 323 322 323 322 322 321 322 322 323 321 322 322 322
296 298 300 295 296 295 297 296 297 298 302 304 301 298 300 305 307 308 309 310 313 315 318 321 323 325 323 324 323 324 324 324 323 323 323 322 322 321 320 321 319 320 321 322
298 301 297 295 294 296 293 301 301 300 298 294 302 291 299 303 304 306 307 309 310 313 318 321 323 324 323 323 324 324 324 323 323 323 322 320 318 316 319 319 321 319 321 321
294 295 295 293 295 298 296 302 300 299 297 297 296 293 297 302 300 304 307 309 312 314 316 320 323 324 325 325 324 323 323 322 323 323 322 321 319 319 320 321 321 320 319 320
296 301 299 297 300 300 300 299 298 298 297 290 294 294 295 299 302 305 308 311 312 313 315 319 324 325 325 325 324 323 322 323 322 323 323 322 321 319 318 319 318 317 318 319
293 294 298 300 294 298 298 293 285 285 287 287 296 294 297 303 306 307 308 311 312 313 315 318 322 323 324 324 322 323 322 321 323 323 322 321 321 320 319 318 318 317 317 317
285 283 292 297 294 292 294 293 287 282 285 288 296 291 297 306 308 309 310 313 312 314 317 318 321 323 324 324 322 322 321 320 323 322 322 322 322 321 321 321 320 318 317 317
286 285 295 297 297 296 293 291 296 290 290 288 295 298 303 306 305 307 308 310 310 313 315 316 319 323 324 325 323 321 321 321 322 321 322 322 324 323 320 321 321 321 319 318
292 286 295 296 299 298 296 299 289 289 282 282 291 294 295 301 303 305 307 309 311 313 315 316 318 323 325 326 325 323 321 321 323 323 322 322 322 323 323 322 321 321 321 320
296 291 290 295 292 292 293 292 293 293 290 285 286 291 305 303 305 306 308 309 311 313 314 316 318 323 325 326 326 325 322 321 322 324 323 322 322 323 322 322 323 322 322 321
298 293 287 290 297 298 297 294 294 287 288 292 291 292 306 306 307 307 307 309 310 312 313 316 318 321 323 325 326 325 324 322 322 323 324 324 324 323 323 323 323 324 322 323
293 291 286 288 293 297 293 295 296 295 294 288 287 291 305 306 306 306 307 307 309 311 311 313 313 318 320 324 325 325 325 324 324 323 323 323 323 323 323 323 324 324 324 322
296 291 289 285 288 293 291 294 295 295 289 290 291 294 299 301 302 305 306 308 309 309 310 311 312 313 319 322 324 325 326 326 325 324 323 322 323 323 323 323 324 325 324 323
294 288 291 291 294 294 292 293 294 292 294 290 293 294 299 301 303 305 307 307 307 308 310 311 311 312 314 316 323 324 325 327 326 324 323 321 323 324 324 323 323 323 324 324
295 288 290 288 292 293 291 293 294 295 295 294 295 295 302 304 305 303 304 305 307 308 309 310 312 313 313 315 315 321 324 325 327 325 324 323 323 322 323 323 323 322 322 322
292 289 287 284 290 290 286 291 292 294 296 295 291 297 302 301 302 303 304 307 307 307 308 310 310 312 314 316 318 315 315 323 325 325 325 325 324 322 322 323 323 322 321 321
290 289 289 285 287 279 291 297 296 294 296 298 298 300 301 301 303 304 306 307 306 307 308 310 312 313 316 317 315 316 318 315 318 324 324 325 325 323 323 323 322 321 321 320
294 290 286 284 283 287 290 293 292 291 292 298 297 299 301 302 302 302 306 308 308 308 309 311 313 312 311 308 308 311 314 317 318 314 323 324 324 323 323 322 322 322 321 320
293 294 288 286 281 279 289 295 300 298 288 300 300 299 299 300 295 299 305 306 308 309 310 309 310 307 303 300 302 305 310 311 309 312 319 321 324 323 322 322 322 322 322 320
287 288 284 284 283 287 294 298 301 287 290 300 300 301 300 298 300 303 306 307 309 309 307 307 306 302 297 297 298 298 300 298 302 308 315 314 317 322 322 321 321 321 320 307
286 284 284 285 282 280 298 297 291 298 301 301 301 301 301 302 302 304 305 307 306 304 304 303 301 298 294 293 294 294 293 296 299 301 302 302 302 304 313 317 308 305 300 293
285 290 287 288 288 297 301 300 302 303 300 300 300 301 301 300 300 302 302 305 303 301 299 298 297 294 292 292 291 290 291 294 294 292 290 290 291 293 297 299 297 295 294 291
293 296 292 292 294 297 299 301 302 301 301 301 300 300 299 298 299 299 301 298 297 297 294 293 292 289 288 289 288 288 288 292 290 288 287 287 286 285 285 290 290 290 288 287
293 295 292 291 294 296 297 298 299 299 299 298 299 298 296 296 294 294 295 292 291 290 289 288 285 285 284 285 285 286 287 289 288 287 286 285 284 283 282 282 283 284 285 287
295 291 289 289 295 295 294 296 297 296 295 296 296 294 294 292 290 289 287 285 285 284 283 282 282 281 281 281 282 283 286 286 286 284 283 283 283 282 281 281 280 283 283 284

GFSCGP_sfc_thetae_081.txt.gz
Theta_e
294 287 285 289 295 296 295 293 292 295 300 300 299 296 297 300 300 301 302 303 307 312 315 317 319 318 321 322 321 321 322 323 323 321 319 318 319 321 321 321 321 322 323 323
290 286 292 294 295 293 292 290 290 295 299 299 298 298 299 299 300 300 304 303 305 312 313 317 317 317 320 320 320 319 321 322 323 322 321 320 320 321 321 321 319 322 321 321
290 293 297 296 293 292 292 291 291 292 297 299 298 295 297 300 301 302 302 306 307 312 313 316 317 316 319 319 320 319 320 321 322 323 322 321 321 321 320 320 319 320 320 321
293 298 297 294 293 293 288 295 296 296 294 289 298 287 296 297 299 302 303 301 301 308 315 317 317 315 317 318 321 320 321 320 321 323 321 319 318 316 319 319 318 319 320 320
290 293 292 292 293 295 291 297 296 295 293 293 294 290 294 298 296 299 302 303 302 303 315 317 318 317 318 319 318 319 321 322 322 322 322 320 318 319 319 320 317 317 318 319
290 296 295 294 298 298 299 296 295 294 292 286 291 290 290 294 298 300 302 303 304 304 314 318 320 319 318 318 317 319 319 320 321 322 322 320 319 318 317 317 317 317 317 315
288 290 296 300 294 297 295 291 285 283 284 282 293 290 292 299 302 303 304 302 304 305 312 317 318 318 318 317 317 318 317 317 321 321 322 321 320 319 318 318 317 317 316 315
282 280 290 298 293 291 292 290 285 280 281 285 293 287 292 301 304 304 304 304 305 306 311 317 318 319 319 318 317 318 317 318 318 321 321 321 321 320 319 319 319 318 318 317
283 284 292 295 295 295 290 287 293 287 289 285 290 294 299 302 303 302 302 304 304 307 310 317 318 319 319 317 318 318 317 318 319 319 320 320 319 319 319 320 320 320 319 319
290 284 293 294 296 296 292 296 287 287 281 280 288 291 293 298 299 302 301 301 303 306 308 310 318 319 320 319 318 318 318 318 319 319 320 321 320 320 321 320 319 320 319 317
294 289 289 292 291 290 291 289 290 291 288 285 283 289 301 299 301 302 302 303 305 305 306 309 312 319 320 320 319 318 318 318 318 320 320 320 321 322 323 321 321 321 321 318
294 289 284 287 294 297 296 292 291 286 286 289 288 288 304 304 304 303 302 304 305 305 305 307 310 318 319 320 319 318 318 318 319 320 319 318 319 320 321 321 321 321 321 321
292 287 282 286 292 296 292 294 294 293 292 287 285 289 304 304 303 304 303 304 306 307 308 308 309 310 314 319 320 319 319 317 319 320 319 318 318 318 318 319 320 321 321 321
294 289 286 283 288 291 289 292 293 292 287 287 289 291 297 300 301 303 304 305 306 306 307 307 308 310 312 313 318 321 321 320 319 319 320 319 319 319 319 320 319 320 320 320
291 285 289 289 291 292 292 292 292 291 291 288 291 293 298 300 302 303 305 306 306 306 307 307 308 310 312 314 315 317 318 322 321 320 318 319 320 321 321 320 320 321 321 321
293 284 288 286 290 290 289 292 292 291 292 293 293 292 301 302 303 303 304 305 304 305 306 308 310 312 312 311 310 312 314 317 323 321 320 320 319 320 320 320 320 320 321 321
290 287 285 281 288 289 284 289 291 293 295 294 290 295 301 301 302 301 302 303 302 304 307 309 308 308 307 305 306 306 310 314 316 318 321 321 320 319 320 321 320 319 319 320
288 287 285 280 284 277 290 297 296 293 294 295 295 298 300 300 301 302 302 302 303 306 307 306 305 303 302 301 301 304 309 307 308 308 311 316 321 320 320 319 320 320 320 318
291 287 280 278 279 285 288 293 291 290 290 297 295 298 299 300 300 299 303 304 305 305 305 304 302 299 298 297 298 301 303 302 302 303 305 311 310 310 318 319 318 320 319 318
290 289 282 279 279 275 287 295 299 297 286 298 299 297 297 298 291 295 303 304 302 302 303 301 299 296 294 294 295 297 297 298 298 300 303 304 303 302 303 313 320 320 320 319
283 282 280 280 279 284 293 297 300 285 288 298 298 297 297 294 297 300 304 301 299 298 297 299 296 292 292 293 292 292 292 291 295 297 298 296 295 296 298 300 311 318 318 317
283 281 279 280 277 276 296 296 290 295 297 297 297 297 296 298 298 299 298 296 294 293 292 293 291 290 290 290 289 289 288 290 293 293 292 291 290 289 290 293 297 300 306 299
283 287 283 284 283 295 298 298 300 300 298 297 297 297 298 296 295 296 294 293 290 289 288 289 288 288 287 286 287 285 286 289 291 289 288 287 287 285 285 285 287 291 294 293
291 293 289 288 293 294 295 297 298 298 296 297 296 295 295 292 292 291 289 288 287 285 285 285 285 283 282 283 284 284 286 288 289 286 285 284 283 283 283 283 284 284 284 288
291 293 289 290 293 294 293 294 295 295 296 296 294 292 291 289 288 287 284 284 283 282 283 282 281 281 280 282 282 283 285 286 286 284 284 283 282 282 282 282 282 282 283 284
292 289 289 285 290 291 290 293 294 292 291 290 290 287 286 286 284 284 281 281 280 280 280 279 279 280 280 281 281 282 284 283 283 281 281 281 281 280 280 280 280 283 283 284

GFSCGP_sfc_thetae_087.txt.gz
Theta_e
291 286 282 286 291 292 291 289 287 289 294 294 293 293 295 297 296 297 297 297 298 298 304 312 321 323 324 325 324 322 321 319 318 318 318 319 319 322 323 325 326 327 326 322
288 283 289 290 290 291 291 288 286 289 293 294 292 292 296 297 299 298 300 300 301 300 307 313 319 322 323 323 322 322 321 319 318 319 318 319 320 321 322 323 325 326 326 322
285 289 292 290 288 287 286 285 285 286 293 293 293 290 293 298 298 300 302 300 299 302 307 313 317 319 321 321 320 320 321 321 319 319 320 320 318 320 319 319 322 322 325 324
289 293 291 287 287 288 284 291 291 291 289 282 293 282 291 295 297 300 301 301 299 300 310 313 316 317 319 321 321 320 321 320 321 320 318 318 316 316 318 319 320 321 321 323
289 291 290 289 290 292 289 295 293 292 288 287 288 285 287 295 294 298 300 301 300 299 309 311 315 317 318 321 319 318 319 320 320 320 320 319 318 317 318 319 318 319 319 320
289 291 292 293 296 294 297 293 292 292 288 280 285 286 285 289 293 297 301 302 301 298 308 312 315 317 317 318 318 317 318 320 320 319 320 319 318 317 316 316 316 317 318 318
285 286 293 297 292 295 292 286 275 276 280 278 288 286 287 294 298 300 301 302 303 300 305 311 311 314 316 316 316 318 317 316 319 321 320 319 319 318 317 316 315 316 316 316
279 279 290 296 292 290 289 286 277 275 278 282 289 283 288 299 302 302 303 303 304 302 302 311 312 314 315 316 317 317 316 316 316 318 319 320 320 319 317 317 316 314 315 316
281 281 289 294 294 293 289 284 290 284 284 282 286 289 295 302 302 303 302 301 300 301 301 310 313 314 315 316 316 317 316 316 316 316 318 319 320 319 318 317 317 315 314 316
288 282 290 291 294 293 291 293 283 287 277 276 283 285 290 296 298 301 300 300 301 303 306 311 312 314 316 317 316 317 317 316 316 317 319 319 319 320 320 319 317 317 315 314
291 288 287 290 287 286 288 287 288 288 287 281 278 286 299 297 298 299 301 302 302 304 308 312 313 314 315 316 316 316 316 316 316 317 318 318 318 320 320 319 319 319 318 316
290 287 282 285 292 293 290 288 289 283 283 287 285 285 301 299 299 301 302 303 304 307 310 312 314 314 314 314 315 315 315 315 315 317 317 317 318 319 319 319 320 320 319 319
289 285 280 282 288 293 289 292 292 292 290 285 281 285 299 299 299 301 301 303 306 307 306 308 309 312 314 314 315 316 316 315 317 317 316 316 316 317 318 319 319 319 319 319
292 286 283 277 281 289 287 290 291 290 285 286 286 288 295 296 297 300 302 304 306 305 304 304 304 305 307 309 311 313 315 317 317 318 317 316 316 317 318 318 319 319 319 319
288 281 284 285 287 288 288 288 289 288 289 286 289 290 295 298 299 301 304 305 304 302 301 301 300 301 302 304 306 306 307 309 315 317 318 317 318 318 319 319 319 319 319 319
290 283 283 282 286 286 285 287 288 290 291 291 291 290 298 301 304 302 303 304 301 300 299 298 298 297 297 298 300 301 302 303 306 308 311 316 318 318 318 318 318 318 319 318
286 284 282 279 284 283 280 285 285 291 293 292 288 293 299 300 300 301 303 303 299 298 297 295 294 294 294 295 297 296 297 298 298 299 302 302 304 305 307 312 317 317 317 317
285 284 283 278 281 273 284 290 290 289 294 295 295 297 300 299 299 303 305 300 297 296 295 293 292 292 292 294 294 294 294 295 294 294 294 296 297 298 301 303 302 304 309 317
288 283 278 276 277 280 284 287 288 289 288 295 293 297 299 297 296 293 297 296 294 293 292 291 290 290 290 291 293 293 292 293 292 291 290 291 291 293 294 294 295 298 300 303
287 285 280 277 275 270 282 291 296 295 284 294 297 297 297 298 290 289 292 292 291 292 290 289 288 287 287 287 291 291 290 291 289 289 288 288 287 288 288 289 291 292 295 298
280 280 279 278 277 279 288 293 296 283 284 294 295 295 296 290 292 290 291 289 289 289 289 289 286 284 284 285 287 287 288 288 289 287 286 285 285 286 286 286 288 289 291 293
279 278 277 279 277 275 293 293 286 290 294 294 295 293 291 290 290 288 287 286 285 284 284 285 283 282 283 284 285 284 284 287 288 286 284 283 283 284 285 284 284 285 288 287
276 283 283 283 281 292 294 293 295 296 294 294 294 294 292 289 287 286 284 283 282 282 281 282 281 281 281 282 283 282 283 286 285 284 282 282 282 282 283 283 282 282 284 284
286 288 284 286 290 291 292 291 292 291 288 289 290 290 290 287 286 284 283 281 280 280 279 280 281 280 280 281 282 282 282 285 283 282 282 281 280 281 281 282 282 282 281 281
287 287 286 285 288 289 290 291 289 289 288 286 284 284 285 284 282 281 280 279 278 278 279 279 279 278 279 280 280 281 282 282 282 281 281 280 281 279 279 279 279 279 281 282
286 283 282 281 285 285 285 289 289 285 283 283 282 280 280 281 280 279 278 278 277 277 277 277 278 277 277 278 278 279 281 281 280 279 279 278 278 277 277 277 277 280 279 281

GFSCGP_sfc_thetae_090.txt.gz
Theta_e
291 285 282 285 289 291 290 288 286 287 293 290 290 291 293 295 294 294 295 297 297 298 300 300 310 320 321 324 324 323 319 318 318 318 317 318 319 322 324 326 327 327 325 321
287 283 288 290 290 290 289 287 286 289 291 292 290 290 292 294 296 296 297 297 298 299 301 308 316 319 321 323 324 323 320 317 317 318 318 316 321 322 323 324 325 327 324 321
286 288 292 289 287 286 285 285 284 285 290 290 291 288 291 294 295 297 298 299 300 300 299 309 316 318 322 322 323 322 321 319 318 318 318 318 320 320 319 321 323 325 323 321
287 291 289 287 286 287 282 288 288 289 286 280 290 280 288 292 293 295 298 299 301 301 302 309 315 319 320 322 323 322 321 319 318 319 318 317 316 315 318 320 321 322 322 320
288 290 289 286 287 289 287 294 292 292 286 285 285 281 283 290 289 292 295 299 300 301 300 308 314 317 320 322 321 321 321 320 319 318 318 316 315 314 319 319 319 319 321 320
289 290 291 291 296 294 297 292 291 290 287 278 284 283 282 284 288 295 300 299 301 301 299 307 314 317 320 322 320 319 319 319 319 318 318 316 316 314 317 317 317 318 318 320
284 285 291 296 292 294 291 286 276 274 279 276 286 283 285 291 295 301 299 300 300 301 298 304 311 314 317 319 317 318 317 317 318 318 317 317 317 317 316 317 317 317 317 317
278 277 288 294 290 289 288 286 279 274 277 280 287 282 285 296 302 303 304 302 301 300 298 305 311 314 316 318 316 316 316 316 318 317 317 317 316 317 318 317 317 316 317 318
279 279 288 294 293 292 288 284 288 282 283 278 281 287 293 300 299 300 301 302 302 304 302 302 311 314 315 316 316 316 316 316 317 318 317 317 318 316 318 317 317 317 314 317
287 281 289 291 293 294 290 292 281 285 278 276 281 283 285 293 296 299 299 300 304 307 305 302 311 314 315 316 317 317 317 316 315 316 317 318 318 317 318 317 315 313 313 314
290 287 286 289 287 287 288 286 287 287 284 279 276 281 295 294 298 298 300 302 304 305 310 310 312 315 315 317 316 316 316 316 316 316 317 317 318 317 319 318 315 314 313 313
290 287 283 286 292 292 290 288 288 279 279 285 284 282 298 299 300 301 300 302 305 304 307 312 312 313 313 314 315 315 316 315 316 317 317 316 317 317 318 318 318 318 316 314
288 285 279 284 288 291 289 291 292 291 287 283 280 281 298 299 299 300 300 303 302 302 303 305 307 311 312 313 314 314 315 315 316 317 316 316 316 315 316 318 319 319 319 318
293 286 282 278 280 287 286 289 290 289 283 284 285 286 292 297 298 299 302 304 300 299 299 300 300 302 305 307 309 310 312 317 316 316 315 315 316 315 315 316 318 319 319 318
288 281 284 285 286 286 286 285 287 287 287 283 285 287 292 295 299 300 302 301 298 297 296 295 295 297 299 301 303 305 306 309 318 318 317 316 316 316 317 316 317 318 318 317
289 282 283 282 285 284 282 284 285 286 287 288 290 289 297 300 302 301 302 299 297 295 295 294 293 294 294 295 296 297 298 299 303 304 304 304 306 314 315 317 318 318 317 318
286 283 280 278 283 282 278 282 283 283 290 290 285 291 298 297 299 301 299 297 296 295 293 292 291 291 292 293 294 294 295 295 295 296 297 298 300 301 302 304 304 305 309 316
284 283 282 278 281 271 282 287 287 287 289 293 293 294 298 296 294 296 298 295 293 292 291 290 289 289 290 293 293 293 293 292 291 291 290 291 293 295 296 296 297 298 300 302
287 283 278 276 277 279 282 286 287 285 285 292 292 295 298 295 293 291 293 293 291 290 289 288 288 287 288 288 293 292 292 290 289 287 287 287 288 289 290 291 292 293 295 297
285 284 280 277 274 269 280 288 293 291 279 292 293 295 296 297 290 288 291 291 290 290 288 286 286 285 285 285 289 290 290 289 286 286 285 285 286 286 286 286 287 290 293 294
280 280 279 278 277 279 286 292 294 279 280 292 292 295 294 288 290 289 289 286 286 285 285 285 284 282 283 284 287 286 287 287 286 285 284 284 285 285 285 285 286 287 289 289
279 277 276 280 277 274 291 291 283 290 293 292 291 290 288 287 286 285 284 283 282 281 281 282 281 281 282 283 284 283 283 286 286 284 283 283 283 284 284 284 284 285 285 285
275 283 282 282 281 290 291 289 291 292 289 291 291 290 288 286 284 284 282 281 280 280 280 282 281 281 281 282 282 281 282 285 284 282 281 281 281 281 282 282 282 282 282 282
283 288 284 284 286 288 290 290 289 287 286 287 288 287 288 285 284 282 280 279 279 279 279 280 280 279 279 280 280 281 281 284 283 281 280 281 279 278 278 279 280 280 281 280
284 286 282 285 286 288 286 287 288 286 286 283 282 283 283 282 280 279 278 278 277 278 278 278 278 277 277 278 278 279 280 281 280 280 280 279 279 279 278 278 278 279 280 281
284 281 278 280 284 284 282 284 285 282 281 282 281 279 279 280 278 278 276 277 276 276 276 276 277 276 276 276 275 276 278 280 280 278 278 276 276 276 276 276 276 279 279 280

GFSCGP_sfc_thetae_093.txt.gz
Theta_e
293 289 286 289 292 292 293 292 291 293 297 295 296 296 298 300 301 300 302 303 304 306 309 310 311 312 322 327 329 330 324 323 323 320 320 322 323 325 328 329 331 328 325 323
289 286 291 292 292 292 292 290 290 293 296 294 294 294 297 298 299 301 302 303 304 305 307 309 312 316 322 325 328 327 322 322 322 322 323 323 322 324 326 327 327 326 323 322
286 289 292 290 289 288 289 289 289 289 293 294 294 291 294 298 300 301 302 303 304 305 306 308 314 319 323 324 327 325 323 322 322 322 322 323 324 323 323 325 326 325 323 322
289 293 290 289 288 289 285 291 290 289 289 284 294 283 291 295 296 297 299 303 305 305 307 308 312 319 322 324 328 325 323 322 322 321 320 322 319 318 322 323 324 324 323 322
289 291 288 286 288 291 287 292 290 293 290 289 289 286 288 293 291 298 304 306 307 307 307 308 311 318 323 326 327 325 323 322 320 320 320 320 319 320 323 323 322 323 323 322
292 294 293 292 296 292 297 294 293 293 290 282 286 286 286 290 292 298 304 305 306 308 308 308 311 319 322 326 326 324 323 321 321 319 320 321 318 318 322 321 320 320 319 320
287 288 296 298 293 296 293 289 283 280 281 280 287 286 288 295 301 301 302 304 306 309 311 310 308 317 321 323 322 323 322 319 319 319 319 319 318 320 322 321 320 320 318 318
281 280 290 296 294 291 290 290 283 276 279 282 288 282 289 301 303 304 305 305 306 309 311 313 310 315 320 323 321 321 320 319 319 319 319 319 319 322 323 322 321 321 319 319
281 281 293 295 296 295 290 287 290 285 285 282 284 288 295 300 301 303 303 303 304 307 309 312 315 315 320 322 322 320 319 319 319 319 319 318 320 322 322 321 321 320 321 320
287 283 290 293 296 295 292 294 285 286 278 276 283 285 288 295 297 301 302 302 303 305 306 313 314 313 319 322 321 319 319 319 318 319 319 319 320 320 322 322 321 319 319 321
292 289 287 292 289 289 290 288 289 289 286 280 278 284 298 297 299 300 302 301 301 302 304 312 315 316 319 321 318 317 319 318 321 320 320 322 320 320 321 320 320 318 320 321
292 290 284 286 293 295 293 290 289 284 281 284 283 284 300 300 301 302 302 302 300 301 302 305 313 316 317 317 317 317 318 317 319 320 319 319 321 319 320 321 320 321 322 322
291 286 283 284 289 292 290 292 293 291 288 282 282 285 300 300 300 302 301 300 299 298 298 299 302 303 311 314 315 316 316 316 318 318 318 318 318 318 319 322 321 321 321 321
295 287 284 280 283 289 285 287 291 290 283 283 285 286 292 295 297 300 300 299 297 297 296 296 296 297 298 300 303 306 313 317 318 318 318 317 317 318 320 322 322 322 321 321
291 284 286 286 287 288 287 286 287 287 288 284 286 287 291 295 298 301 300 299 296 295 294 293 293 294 294 295 297 298 301 306 317 316 316 317 319 320 321 322 322 322 322 322
291 284 286 283 286 286 284 286 286 287 288 288 289 289 297 300 300 301 298 297 294 292 292 291 291 292 293 293 294 295 295 297 299 300 300 303 305 305 306 308 315 318 318 319
287 285 282 279 284 283 279 284 284 285 287 290 287 293 298 294 293 296 296 294 291 290 289 289 289 289 290 293 294 293 293 293 292 292 293 295 297 298 299 301 302 301 302 306
286 285 284 279 282 272 283 289 289 287 289 292 294 296 298 295 292 291 294 292 290 289 288 287 287 287 288 291 293 293 291 291 289 289 289 291 292 292 294 295 296 296 299 301
289 286 281 278 277 281 283 289 288 286 286 292 292 296 297 294 292 287 290 290 289 287 287 286 286 286 287 289 291 292 290 289 287 287 288 288 289 290 291 291 292 294 296 296
287 287 283 280 275 272 282 290 295 293 281 291 293 298 296 296 291 285 287 286 285 286 286 284 284 285 285 287 289 289 288 287 285 286 287 288 288 288 288 288 289 292 293 291
282 283 279 278 277 281 288 292 294 281 283 291 291 290 291 285 287 285 285 283 284 284 284 285 284 283 283 285 287 285 286 284 285 286 286 286 287 287 287 287 288 289 289 288
281 280 279 280 277 275 291 292 286 290 292 291 290 288 285 285 285 283 282 281 281 281 282 283 283 282 282 283 284 283 283 285 285 285 283 282 283 284 285 285 285 285 285 285
281 285 282 283 283 288 289 288 288 290 287 288 288 288 286 284 282 281 280 280 280 281 281 281 281 280 281 281 281 281 283 284 283 283 281 281 282 282 283 283 283 283 283 283
286 288 284 285 285 284 286 288 287 286 283 285 286 286 286 282 282 280 279 279 279 279 279 280 280 279 278 280 280 280 282 283 282 281 281 281 280 281 281 282 282 282 282 281
284 285 282 284 285 286 284 285 285 284 284 283 282 283 282 281 280 280 279 278 278 278 279 279 278 278 277 278 278 279 280 283 281 280 280 280 280 279 279 279 280 280 281 281
284 282 280 280 283 283 281 283 283 281 280 280 280 279 280 280 278 278 277 277 277 276 277 277 277 277 277 277 277 277 279 280 281 280 279 279 279 278 278 278 276 278 279 280

GFSCGP_sfc_thetae_096.txt.gz
Theta_e
295 290 289 294 296 297 295 294 294 298 301 299 299 301 303 306 306 306 307 309 310 311 315 316 318 319 319 324 330 335 337 334 331 329 328 328 328 329 331 335 333 333 330 328
291 288 294 296 295 293 292 291 292 297 300 299 298 299 303 304 305 306 307 308 310 311 313 315 317 319 320 323 329 333 336 331 331 333 333 330 328 329 331 332 331 332 329 324
289 291 294 294 292 290 292 291 291 292 297 299 297 295 299 303 305 306 307 308 308 308 310 311 313 317 321 325 328 331 335 329 330 335 333 329 329 328 328 329 328 324 323 323
291 293 292 291 291 292 289 295 293 292 291 289 297 289 295 299 300 302 303 308 311 313 314 315 314 315 318 325 329 331 333 326 329 333 331 330 326 323 326 325 329 326 326 323
290 290 290 288 290 293 290 294 292 292 291 291 292 290 293 296 295 299 304 309 312 314 315 316 316 316 317 325 329 332 329 326 327 329 333 329 328 326 326 327 328 327 325 325
294 298 295 293 294 294 295 292 293 294 292 287 291 290 291 294 296 301 306 309 311 313 315 317 320 318 317 324 330 331 325 324 326 329 330 330 328 325 324 325 326 322 322 321
292 292 297 297 292 294 295 292 286 284 285 284 291 289 293 298 303 304 305 308 310 312 314 316 317 320 318 324 329 328 323 322 324 326 328 327 327 325 326 324 324 322 321 320
284 281 294 298 293 291 291 291 287 278 281 285 292 287 293 303 304 307 308 309 310 310 312 314 316 320 319 323 328 325 323 324 324 325 325 324 327 321 326 325 325 324 322 321
285 284 293 298 299 296 292 290 294 286 288 286 289 292 297 302 302 305 306 307 308 309 310 311 311 321 322 322 327 325 323 325 322 324 324 323 325 323 324 327 328 327 325 322
290 284 291 295 299 298 296 297 288 290 280 280 286 288 292 296 300 303 304 306 307 307 306 305 305 320 320 323 327 325 324 323 321 322 323 322 321 322 325 328 324 324 327 323
293 291 289 293 292 291 292 291 292 292 290 285 283 288 300 300 301 301 303 305 305 303 303 299 301 313 321 324 324 322 321 321 320 322 322 322 321 322 324 325 324 324 323 323
295 291 285 288 295 297 295 292 292 287 284 289 288 290 303 300 301 303 302 302 303 302 301 297 298 303 316 320 318 319 321 319 320 321 321 321 321 321 322 322 324 324 322 322
294 290 284 286 292 295 292 294 294 294 292 286 286 290 300 299 301 304 298 299 300 299 298 294 296 297 300 303 315 318 319 319 322 321 322 321 320 321 320 321 326 325 325 324
297 290 288 284 288 292 290 292 294 292 289 287 289 289 294 298 300 303 297 298 297 297 294 291 291 294 296 298 299 301 310 318 319 319 320 319 319 319 320 323 324 322 323 323
294 286 289 290 290 291 289 288 289 288 289 286 289 289 294 299 300 302 297 295 294 294 292 289 289 290 294 294 295 297 297 300 310 312 312 316 319 320 320 323 323 323 323 322
292 286 288 285 288 288 285 287 287 288 289 289 290 291 300 301 299 294 293 293 291 289 289 289 288 288 292 292 293 293 293 295 296 296 297 300 302 304 305 307 307 313 314 318
288 287 284 282 286 284 282 286 287 289 291 291 288 294 300 297 294 292 291 291 289 289 288 286 286 286 290 292 291 290 291 293 292 293 293 293 295 297 298 300 300 301 303 305
287 286 286 282 283 275 286 292 292 290 292 294 295 298 299 294 291 290 291 290 288 287 286 285 285 286 287 290 291 290 290 290 292 291 290 292 292 292 294 295 296 299 299 295
293 289 283 281 280 283 287 290 289 288 288 293 293 297 294 293 291 287 287 287 286 286 286 286 286 285 286 288 290 290 288 288 288 287 288 291 290 290 292 292 294 295 294 291
291 291 287 283 277 275 286 292 296 295 285 291 292 294 296 293 291 285 285 284 285 285 286 286 287 286 286 287 289 288 287 287 286 286 287 289 289 290 289 291 293 293 291 289
285 285 282 282 280 284 290 294 296 283 285 292 291 288 286 282 283 284 284 283 285 286 286 287 288 287 285 287 288 286 286 284 285 286 288 287 287 287 289 289 290 291 291 290
284 284 283 284 280 277 288 293 287 287 290 290 289 287 284 283 283 282 282 281 283 285 284 286 285 284 285 285 286 285 284 286 286 285 284 285 285 286 287 287 288 289 289 288
283 285 283 283 281 287 287 286 286 288 286 288 288 288 286 284 283 282 281 281 281 282 283 285 284 283 283 283 284 283 284 286 286 286 284 285 284 284 285 285 286 286 286 286
287 289 287 286 284 284 286 287 286 286 285 285 287 287 286 283 283 281 282 281 282 282 282 284 284 282 281 282 282 283 284 285 284 283 284 284 282 282 283 283 283 283 284 283
288 289 284 284 286 286 286 285 286 285 286 285 285 285 285 285 283 283 282 282 281 282 282 283 282 281 281 281 281 282 283 285 284 283 282 283 282 280 280 280 280 280 281 281
286 283 284 282 285 285 283 284 284 282 282 283 284 283 283 284 282 282 280 280 280 280 281 281 281 280 280 280 280 281 282 284 284 283 283 282 283 282 281 280 278 278 279 280

GFSCGP_sfc_thetae_099.txt.gz
Theta_e
296 290 288 293 297 298 295 295 295 299 303 302 301 302 304 307 308 308 309 311 312 313 316 318 319 320 321 323 327 333 339 342 338 334 332 332 332 332 335 334 336 336 336 336
293 287 293 297 297 296 295 290 294 299 301 301 300 300 304 307 308 309 309 310 311 313 315 316 318 320 321 321 322 328 334 339 338 333 334 335 333 333 336 335 334 335 335 335
291 291 295 294 294 293 294 291 293 293 296 299 299 296 298 304 306 308 309 310 312 312 312 314 315 318 320 321 323 324 330 336 338 336 336 336 335 332 332 331 333 334 334 334
294 295 294 293 292 294 289 296 294 292 292 288 298 288 297 300 303 305 307 307 310 313 315 316 317 318 320 321 324 327 329 334 336 338 336 334 330 327 329 331 330 331 330 325
292 292 292 291 292 295 292 296 294 294 292 292 292 291 295 300 298 301 304 308 311 314 316 317 318 320 321 321 324 329 330 333 334 337 337 334 332 331 330 329 328 327 325 325
293 299 296 294 295 295 296 293 293 293 291 285 291 291 291 294 297 300 306 309 311 313 315 317 319 321 322 322 324 329 330 334 333 333 336 334 333 331 327 326 326 327 325 322
292 293 297 296 292 295 293 289 283 281 283 283 293 291 293 300 304 305 305 308 311 313 314 314 316 318 321 324 321 327 331 330 330 329 334 335 334 331 328 327 325 324 322 321
286 285 292 296 293 290 291 290 285 279 281 285 293 286 292 304 306 307 307 309 310 312 312 312 313 316 319 324 323 327 330 327 326 327 333 334 334 330 328 327 326 326 322 322
287 285 295 296 296 295 291 288 294 288 290 288 289 294 301 303 304 305 305 307 306 309 310 309 311 311 317 319 325 328 328 324 324 326 332 333 332 330 327 328 328 327 326 324
292 284 292 295 299 297 294 296 288 291 279 280 287 289 291 297 299 302 304 305 305 308 307 306 306 305 311 314 324 330 327 325 325 325 327 329 331 328 328 328 326 327 328 324
293 290 288 294 292 290 293 291 293 292 289 284 282 289 300 298 300 301 304 305 304 305 303 302 299 299 304 308 325 329 325 324 323 324 324 326 328 327 327 327 327 325 327 325
294 291 286 288 295 297 295 293 292 287 286 289 288 289 301 300 302 304 304 303 303 302 301 298 294 295 297 299 311 323 323 322 323 322 323 323 325 325 324 325 326 327 326 326
296 291 284 285 292 296 293 295 295 294 293 288 286 289 299 302 302 302 301 298 299 299 298 295 292 291 294 295 298 306 321 320 322 322 321 322 322 322 323 324 326 325 324 324
298 292 288 284 287 292 291 293 294 293 288 288 289 290 298 300 300 297 294 295 294 295 296 295 290 290 293 293 294 297 301 310 320 320 320 322 321 322 322 324 325 325 324 324
295 288 289 292 293 293 292 292 293 291 291 288 290 291 297 297 296 294 294 293 292 291 290 291 290 289 289 291 291 293 295 297 302 304 307 313 320 321 322 321 324 324 324 324
293 287 289 287 291 291 288 289 289 289 290 290 291 293 301 300 298 294 292 290 289 289 288 288 288 288 288 290 290 290 292 294 295 295 296 301 303 303 304 307 309 319 318 316
289 288 286 283 287 287 284 288 289 291 293 293 289 295 301 295 291 290 290 289 287 287 287 286 286 285 288 288 289 288 289 292 292 292 293 294 297 298 298 301 301 300 299 299
289 287 288 283 285 278 288 295 294 293 293 294 294 295 298 291 287 287 287 286 286 286 287 287 285 285 285 288 289 288 290 289 290 289 290 292 293 293 295 296 295 293 293 291
293 290 286 283 283 286 288 291 291 290 289 294 293 295 293 289 288 284 285 286 286 286 289 289 289 286 285 285 288 288 287 287 287 285 287 289 290 290 294 292 292 291 289 288
293 292 289 286 279 278 286 292 297 296 286 292 294 292 290 291 289 282 284 285 287 287 289 288 289 288 287 287 287 287 286 286 285 285 286 286 288 289 289 291 291 290 288 287
286 287 284 285 283 285 287 292 296 285 283 291 291 289 286 282 283 284 285 285 287 288 289 289 288 286 286 288 287 286 286 284 285 286 287 287 286 287 289 289 290 290 290 289
285 284 285 286 283 279 287 292 285 285 288 289 289 288 286 285 285 284 284 283 284 285 288 289 287 285 285 286 286 284 284 287 286 286 286 287 287 287 289 288 288 289 289 288
284 286 283 283 281 286 287 286 287 288 286 288 288 289 288 285 283 283 283 282 284 286 287 289 287 286 285 285 285 284 284 286 287 285 283 283 285 284 285 285 286 286 287 286
289 292 287 285 285 285 287 288 288 288 286 288 288 288 289 286 285 284 285 285 286 286 286 287 286 285 284 285 284 284 286 286 285 284 284 283 282 281 282 283 282 281 283 283
288 290 287 284 286 286 286 286 287 287 288 288 289 288 288 288 287 287 286 285 285 285 286 286 284 283 283 283 283 284 285 287 286 284 284 283 282 280 279 278 280 280 280 281
288 284 284 282 285 286 284 285 286 284 284 286 287 286 287 287 286 286 284 284 284 283 284 283 283 282 281 281 280 281 283 285 285 284 283 284 284 283 282 280 277 279 279 280